Tracking 28052 objects as of 23-Sep-2023
HD Live streaming from Space Station
objects crossing your sky now

ARIANE 5 DEB (SYLDA)

Track ARIANE 5 DEB (SYLDA) now!


NORAD ID: 27833
Int'l Code: 2003-028D
Perigee: 601.2 km
Apogee: 35,680.0 km
Inclination: 6.4 °
Period: 636.5 minutes
Semi major axis: 24511 km
RCS: 16.2807 m2 (large)
Launch date: June 11, 2003
Source: France (FR)
Launch site: FRENCH GUIANA (FRGUI)

Note: This is SATELLITE DEBRIS
Your satellite tracking list
Your tracking list is empty




NASA's NSSDC Master Catalog

Two Line Element Set (TLE):
1 27833U 03028D   23265.01093880 -.00000022  00000-0 -69848-3 0  9997
2 27833   6.3582 130.1464 7155555 293.0053   9.5620  2.26227852167465
Source of the keplerian elements: AFSPC